| time (UTC) | temp C | wind direction | speed KPH | gust KPH | rain 1hr cm | rain 24hr cm | rain mn cm | humidity % | barometer mb |
| 20260906013209 | 26 | 198 | 0.0 | 0.0 | 0.00 | 1.14 | 1.14 | 91 | 1010.5 |
| 20260906010209 | 27 | 146 | 0.0 | 0.0 | 0.00 | 1.14 | 1.14 | 89 | 1010.3 |
| 20260906003210 | 27 | 237 | 0.0 | 0.0 | 0.00 | 1.14 | 1.14 | 88 | 1010.3 |
| 20260906000212 | 28 | 169 | 0.0 | 0.0 | 0.00 | 1.14 | 1.14 | 87 | 1010.2 |
| 20260905233209 | 28 | 120 | 0.0 | 0.0 | 0.00 | 1.14 | 1.14 | 85 | 1010.3 |
| 20260905223208 | 30 | 123 | 0.0 | 0.0 | 0.00 | 1.14 | 1.14 | 79 | 1010.7 |
| 20260905220209 | 31 | 223 | 0.0 | 0.0 | 0.00 | 1.14 | 1.14 | 73 | 1010.5 |
| 20260905210208 | 31 | 200 | 3.2 | 4.8 | 0.00 | 1.14 | 1.14 | 76 | 1010.9 |
| 20260905203208 | 31 | 184 | 4.8 | 4.8 | 0.00 | 1.14 | 1.14 | 76 | 1010.8 |
| 20260905200208 | 30 | 153 | 0.0 | 3.2 | 1.12 | 1.14 | 1.14 | 88 | 1011.1 |
| 20260905193208 | 27 | 347 | 0.0 | 0.0 | 1.12 | 1.14 | 1.14 | 95 | 1011.6 |
| 20260905190208 | 28 | 147 | 0.0 | 0.0 | 0.00 | 0.03 | 0.03 | 81 | 1012.4 |
| 20260905183208 | 30 | 237 | 3.2 | 8.0 | 0.00 | 0.03 | 0.03 | 76 | 1012.3 |
| 20260905180208 | 33 | 159 | 0.0 | 3.2 | 0.00 | 0.03 | 0.03 | 67 | 1012.3 |
| 20260905173207 | 32 | 96 | 0.0 | 3.2 | 0.00 | 0.03 | 0.03 | 73 | 1012.7 |
| 20260905170207 | 30 | 293 | 0.0 | 0.0 | 0.00 | 0.03 | 0.03 | 83 | 1013.1 |
| 20260905163207 | 31 | 146 | 0.0 | 0.0 | 0.00 | 0.03 | 0.03 | 73 | 1013.2 |
| 20260905160207 | 29 | 153 | 0.0 | 0.0 | 0.00 | 0.03 | 0.03 | 85 | 1013.6 |
| 20260905150207 | 30 | 96 | 3.2 | 4.8 | 0.00 | 0.03 | 0.03 | 81 | 1013.4 |
| 20260905143206 | 29 | 289 | 0.0 | 0.0 | 0.00 | 0.03 | 0.03 | 88 | 1013.3 |
| 20260905130206 | 25 | 162 | 0.0 | 3.2 | 0.00 | 0.03 | 0.03 | 95 | 1013.0 |
| 20260905123206 | 24 | 118 | 0.0 | 0.0 | 0.03 | 0.03 | 0.03 | 95 | 1012.9 |
| 20260905120206 | 23 | 118 | 0.0 | 0.0 | 0.03 | 0.03 | 0.03 | 95 | 1012.7 |
| 20260905110206 | 23 | 118 | 0.0 | 0.0 | 0.00 | 0.00 | 0.00 | 95 | 1012.3 |
| 20260905103206 | 23 | 118 | 0.0 | 0.0 | 0.00 | 0.00 | 0.00 | 95 | 1012.4 |
| 20260905100206 | 23 | 118 | 0.0 | 0.0 | 0.00 | 0.00 | 0.00 | 95 | 1012.1 |
| 20260905093205 | 23 | 118 | 0.0 | 0.0 | 0.00 | 0.00 | 0.00 | 95 | 1012.2 |
| 20260905090206 | 23 | 118 | 0.0 | 0.0 | 0.00 | 0.00 | 0.00 | 95 | 1011.9 |
| 20260905083206 | 23 | 118 | 0.0 | 0.0 | 0.00 | 0.00 | 0.00 | 94 | 1012.0 |
| 20260905080205 | 23 | 118 | 0.0 | 0.0 | 0.00 | 0.00 | 0.00 | 94 | 1012.0 |
| 20260905073205 | 24 | 118 | 0.0 | 0.0 | 0.00 | 0.00 | 0.00 | 94 | 1012.1 |
| 20260905070205 | 24 | 118 | 0.0 | 0.0 | 0.00 | 0.00 | 0.00 | 94 | 1011.8 |
| 20260905063205 | 24 | 118 | 0.0 | 0.0 | 0.00 | 0.00 | 0.00 | 94 | 1011.9 |
| 20260905060205 | 24 | 118 | 0.0 | 0.0 | 0.00 | 0.00 | 0.00 | 94 | 1012.0 |
| 20260905053205 | 24 | 118 | 0.0 | 0.0 | 0.00 | 0.00 | 0.00 | 94 | 1012.1 |
| 20260905050205 | 24 | 118 | 0.0 | 0.0 | 0.00 | 0.00 | 0.00 | 95 | 1012.5 |
| 20260905040205 | 25 | 118 | 0.0 | 0.0 | 0.00 | 0.79 | 0.00 | 95 | 1012.7 |
| 20260905033204 | 25 | 118 | 0.0 | 0.0 | 0.00 | 1.40 | 0.00 | 95 | 1013.0 |
| 20260905030204 | 25 | 118 | 0.0 | 0.0 | 0.00 | 1.40 | 0.00 | 95 | 1013.2 |
| 20260905020204 | 25 | 117 | 0.0 | 0.0 | 0.00 | 1.40 | 0.00 | 95 | 1013.2 |